When you browse on this site, cookies collect data to enhance your experience and personalize the content and advertising you see.
Visit our Privacy Policy to learn more. By continuing to use the site, you agree to this use of cookies and data.
  • In Latvia
  • List of Countries
  • For 7 days
  • Water Temperature
  • Weather Map
  • Weather Widgets
  • user-avatar
    Login

    Hourly Weather Newport

    Today, 21 September, Saturday

    Time Temperature Precipitation Wind Pressure Humidity
    00:00 +11°C° 0 mm 8 mps 759 mmHg 72%
    01:00 +11°C° 0 mm 8 mps 758 mmHg 73%
    02:00 +11°C° 0 mm 8 mps 757 mmHg 74%
    03:00 +11°C° 0 mm 8 mps 757 mmHg 75%
    04:00 +11°C° 0 mm 8 mps 756 mmHg 75%
    05:00 +11°C° 0 mm 8 mps 756 mmHg 74%
    06:00 +11°C° 0 mm 8 mps 756 mmHg 74%
    07:00 +13°C° 0 mm 9 mps 755 mmHg 73%
    08:00 +15°C° 0 mm 9 mps 755 mmHg 73%
    09:00 +16°C° 0 mm 9 mps 755 mmHg 72%
    10:00 +18°C° 0 mm 9 mps 755 mmHg 72%
    11:00 +19°C° 0 mm 9 mps 754 mmHg 72%
    12:00 +21°C° 0 mm 9 mps 754 mmHg 71%
    13:00 +21°C° 0 mm 8 mps 754 mmHg 72%
    14:00 +22°C° 0 mm 8 mps 753 mmHg 73%
    15:00 +22°C° 0 mm 8 mps 753 mmHg 74%
    16:00 +21°C° 0.2 mm 7 mps 752 mmHg 78%
    17:00 +20°C° 0.2 mm 6 mps 752 mmHg 82%
    18:00 +19°C° 0.2 mm 5 mps 752 mmHg 86%
    19:00 +19°C° 0.9 mm 5 mps 752 mmHg 88%
    20:00 +17°C° 0.9 mm 5 mps 752 mmHg 91%
    21:00 +17°C° 0.9 mm 5 mps 751 mmHg 93%
    22:00 +17°C° 0.1 mm 5 mps 751 mmHg 94%
    23:00 +18°C° 0.1 mm 4 mps 751 mmHg 94%

    Tomorrow, 22 September, Sunday

    Time Temperature Precipitation Wind Pressure Humidity
    00:00 +17°C° 0.1 mm 4 mps 750 mmHg 95%
    01:00 +16°C° 0.1 mm 5 mps 750 mmHg 95%
    02:00 +16°C° 0.1 mm 5 mps 749 mmHg 95%
    03:00 +16°C° 0.1 mm 6 mps 749 mmHg 95%
    04:00 +16°C° 0.7 mm 6 mps 749 mmHg 96%
    05:00 +16°C° 0.7 mm 6 mps 749 mmHg 96%
    06:00 +16°C° 0.7 mm 7 mps 749 mmHg 97%
    07:00 +16°C° 0.9 mm 6 mps 749 mmHg 97%
    08:00 +16°C° 0.9 mm 6 mps 749 mmHg 97%
    09:00 +16°C° 0.9 mm 5 mps 750 mmHg 96%
    10:00 +16°C° 0.5 mm 5 mps 750 mmHg 95%
    11:00 +16°C° 0.5 mm 5 mps 750 mmHg 93%
    12:00 +16°C° 0.5 mm 5 mps 751 mmHg 92%
    13:00 +17°C° 0.6 mm 4 mps 751 mmHg 89%
    14:00 +18°C° 0.6 mm 4 mps 751 mmHg 85%
    15:00 +18°C° 0.6 mm 3 mps 750 mmHg 82%
    16:00 +17°C° 0.9 mm 3 mps 751 mmHg 85%
    17:00 +16°C° 0.9 mm 3 mps 751 mmHg 88%
    18:00 +15°C° 0.9 mm 2 mps 751 mmHg 91%
    19:00 +14°C° 0.2 mm 3 mps 752 mmHg 92%
    20:00 +13°C° 0.2 mm 4 mps 752 mmHg 93%
    21:00 +13°C° 0.2 mm 4 mps 753 mmHg 94%
    22:00 +12°C° 0.1 mm 4 mps 753 mmHg 95%
    23:00 +12°C° 0.1 mm 3 mps 753 mmHg 95%

    Day after tomorrow, 23 September, Monday

    Time Temperature Precipitation Wind Pressure Humidity
    00:00 +12°C° 0.1 mm 3 mps 753 mmHg 95%
    01:00 +12°C° 0.1 mm 3 mps 754 mmHg 95%
    02:00 +12°C° 0.1 mm 4 mps 754 mmHg 94%
    03:00 +12°C° 0.1 mm 4 mps 754 mmHg 94%
    04:00 +12°C° 0 mm 4 mps 754 mmHg 94%
    05:00 +12°C° 0 mm 4 mps 754 mmHg 93%
    06:00 +12°C° 0 mm 4 mps 755 mmHg 92%
    07:00 +13°C° 0.1 mm 5 mps 755 mmHg 91%
    08:00 +14°C° 0.1 mm 6 mps 755 mmHg 89%
    09:00 +15°C° 0.1 mm 6 mps 755 mmHg 87%
    10:00 +15°C° 0.1 mm 7 mps 754 mmHg 86%
    11:00 +15°C° 0.1 mm 8 mps 754 mmHg 84%
    12:00 +16°C° 0.1 mm 8 mps 754 mmHg 83%
    13:00 +15°C° 2.4 mm 9 mps 753 mmHg 87%
    14:00 +15°C° 2.4 mm 9 mps 752 mmHg 91%
    15:00 +13°C° 2.4 mm 10 mps 752 mmHg 95%
    16:00 +15°C° 1.4 mm 9 mps 751 mmHg 96%
    17:00 +15°C° 1.4 mm 8 mps 751 mmHg 96%
    18:00 +16°C° 1.4 mm 7 mps 750 mmHg 96%
    19:00 +16°C° 0.8 mm 7 mps 750 mmHg 96%
    20:00 +16°C° 0.8 mm 6 mps 750 mmHg 96%
    21:00 +16°C° 0.8 mm 6 mps 750 mmHg 96%
    22:00 +16°C° 0.9 mm 6 mps 750 mmHg 96%
    23:00 +15°C° 0.9 mm 6 mps 749 mmHg 96%

    24 September, Tuesday

    Time Temperature Precipitation Wind Pressure Humidity
    00:00 +15°C° 0.9 mm 6 mps 749 mmHg 97%
    01:00 +15°C° 1.1 mm 5 mps 748 mmHg 96%
    02:00 +15°C° 1.1 mm 5 mps 748 mmHg 96%
    03:00 +15°C° 1.1 mm 5 mps 747 mmHg 96%
    04:00 +15°C° 1.1 mm 5 mps 747 mmHg 95%
    05:00 +15°C° 1.1 mm 5 mps 746 mmHg 95%
    06:00 +15°C° 1.1 mm 5 mps 746 mmHg 95%
    07:00 +15°C° 0.5 mm 6 mps 746 mmHg 94%
    08:00 +14°C° 0.5 mm 6 mps 746 mmHg 94%
    09:00 +14°C° 0.5 mm 7 mps 746 mmHg 93%
    10:00 +15°C° 0.4 mm 8 mps 747 mmHg 90%
    11:00 +15°C° 0.4 mm 9 mps 747 mmHg 87%
    12:00 +16°C° 0.4 mm 10 mps 747 mmHg 84%
    13:00 +16°C° 0.3 mm 10 mps 748 mmHg 84%
    14:00 +14°C° 0.3 mm 10 mps 748 mmHg 84%
    15:00 +14°C° 0.3 mm 10 mps 748 mmHg 84%
    16:00 +13°C° 0.1 mm 10 mps 748 mmHg 85%
    17:00 +12°C° 0.1 mm 9 mps 749 mmHg 86%
    18:00 +12°C° 0.1 mm 8 mps 749 mmHg 87%
    19:00 +11°C° 0.3 mm 8 mps 749 mmHg 88%
    20:00 +11°C° 0.3 mm 8 mps 750 mmHg 90%
    21:00 +11°C° 0.3 mm 8 mps 750 mmHg 92%
    22:00 +11°C° 0.3 mm 8 mps 750 mmHg 92%
    23:00 +12°C° 0.3 mm 8 mps 750 mmHg 92%

    25 September, Wednesday

    Time Temperature Precipitation Wind Pressure Humidity
    00:00 +12°C° 0.3 mm 8 mps 750 mmHg 92%
    01:00 +12°C° 0.1 mm 8 mps 749 mmHg 91%
    02:00 +12°C° 0.1 mm 8 mps 749 mmHg 90%
    03:00 +12°C° 0.1 mm 7 mps 749 mmHg 90%
    04:00 +12°C° 0.4 mm 7 mps 749 mmHg 92%
    05:00 +14°C° 0.4 mm 7 mps 749 mmHg 94%
    06:00 +14°C° 0.4 mm 6 mps 749 mmHg 96%
    07:00 +14°C° 1.1 mm 7 mps 749 mmHg 96%
    08:00 +15°C° 1.1 mm 7 mps 749 mmHg 96%
    09:00 +15°C° 1.1 mm 8 mps 749 mmHg 96%
    10:00 +15°C° 0.8 mm 8 mps 748 mmHg 96%
    11:00 +15°C° 0.8 mm 9 mps 748 mmHg 96%
    12:00 +15°C° 0.8 mm 9 mps 748 mmHg 96%
    13:00 +16°C° 0.9 mm 9 mps 748 mmHg 95%
    14:00 +16°C° 0.9 mm 9 mps 748 mmHg 95%
    15:00 +16°C° 0.9 mm 8 mps 747 mmHg 94%
    16:00 +16°C° 0.4 mm 8 mps 747 mmHg 94%
    17:00 +16°C° 0.4 mm 8 mps 747 mmHg 95%
    18:00 +15°C° 0.4 mm 7 mps 747 mmHg 95%
    19:00 +15°C° 0.5 mm 8 mps 747 mmHg 96%
    20:00 +16°C° 0.5 mm 8 mps 746 mmHg 96%
    21:00 +16°C° 0.5 mm 8 mps 746 mmHg 97%
    22:00 +16°C° 2.6 mm 9 mps 745 mmHg 97%
    23:00 +16°C° 2.6 mm 9 mps 744 mmHg 97%

    26 September, Thursday

    Time Temperature Precipitation Wind Pressure Humidity
    00:00 +16°C° 2.6 mm 10 mps 743 mmHg 98%
    01:00 +16°C° 2.4 mm 10 mps 743 mmHg 97%
    02:00 +16°C° 2.4 mm 10 mps 743 mmHg 96%
    03:00 +16°C° 2.4 mm 10 mps 742 mmHg 95%
    04:00 +15°C° 0.4 mm 9 mps 742 mmHg 94%
    05:00 +13°C° 0.4 mm 8 mps 743 mmHg 94%
    06:00 +12°C° 0.4 mm 7 mps 743 mmHg 93%
    07:00 +12°C° 0.2 mm 8 mps 743 mmHg 90%
    08:00 +13°C° 0.2 mm 9 mps 743 mmHg 87%
    09:00 +13°C° 0.2 mm 9 mps 744 mmHg 84%
    10:00 +13°C° 0.6 mm 10 mps 744 mmHg 83%
    11:00 +14°C° 0.6 mm 11 mps 744 mmHg 82%
    12:00 +14°C° 0.6 mm 11 mps 744 mmHg 81%
    13:00 +14°C° 0.4 mm 11 mps 744 mmHg 82%
    14:00 +14°C° 0.4 mm 11 mps 744 mmHg 83%
    15:00 +14°C° 0.4 mm 11 mps 744 mmHg 84%
    16:00 +13°C° 0.5 mm 11 mps 743 mmHg 85%
    17:00 +13°C° 0.5 mm 11 mps 743 mmHg 87%
    18:00 +13°C° 0.5 mm 12 mps 743 mmHg 89%
    19:00 +13°C° 0.8 mm 12 mps 743 mmHg 89%
    20:00 +12°C° 0.8 mm 11 mps 743 mmHg 88%
    21:00 +12°C° 0.8 mm 11 mps 743 mmHg 88%
    22:00 +12°C° 0.7 mm 10 mps 743 mmHg 89%
    23:00 +12°C° 0.7 mm 9 mps 744 mmHg 90%
    Show more